[[{"header":{"parameterUnit":"m.s-1","parameterCategory":1,"la1":30.2991,"la2":30.254,"lo1":-89.0895,"lo2":-89.0444,"dy":0.0017,"dx":0.0017,"nx":28,"ny":28,"refTime":"2024-07-20T21:00:00:Z","depth":0,"parameterNumber":2,"parameterNumberName":"U-component_of_WINDS"},"data":[0,0,0,0,0,0,0,0,0,0,0,0,0,0,0,0,0,0,0,0,0,0,0,0,0,0,0,0,0,0,0,0,0,0,0,0,0,0,0,0,0,0,0,0,0,0,0,0,0,0,0,0,0,0,0,0,0,0,2.8674,2.8675,0,2.8769,2.877,2.8771,2.8721,2.8718,2.8716,2.8713,2.881,2.8815,2.8819,0,0,0,0,0,0,0,0,0,0,0,0,0,2.8447,2.8452,2.8674,2.8675,2.8677,2.8769,2.877,2.8771,2.8721,2.8718,2.8715,2.8712,2.8808,2.8814,2.882,0,0,0,0,0,0,0,0,0,0,0,0,0,2.8544,2.8453,2.8674,2.8663,2.8663,2.8769,2.877,2.8772,2.8722,2.8718,2.8714,2.8711,2.8806,2.8813,2.8821,2.8943,0,0,2.8843,2.8847,0,0,0,0,0,0,0,0,2.8539,2.8553,2.8663,2.8664,2.8664,2.8729,2.8725,2.8829,2.8723,2.8699,2.8713,2.8709,2.8786,2.8795,2.8821,2.8948,2.8952,2.8844,2.8849,2.8852,2.8854,0,0,0,0,0,0,0,2.8532,2.8548,2.8712,2.8665,2.8665,2.8652,2.8661,2.8745,2.8763,2.8701,2.8698,2.871,2.8785,2.8814,2.8823,2.8953,2.8844,2.885,2.8855,2.8858,2.918,2.9184,0,0,0,0,0,0,2.8526,2.8543,2.8709,2.8714,2.8591,2.8659,2.867,2.8712,2.8762,2.8766,2.8713,2.8707,2.8803,2.8814,2.8826,2.8969,2.8852,2.8859,2.8863,2.9176,2.9181,2.9186,0,0,0,0,0,0,2.8522,2.8542,2.8705,2.8628,2.8648,2.8667,2.8715,2.8716,2.8744,2.8771,2.8773,2.8739,2.8801,2.8816,2.8913,2.8972,2.8862,2.8869,2.9171,2.9178,2.9184,2.9258,0,0,0,0,0,0,2.8515,2.854,2.8588,2.8629,2.8652,2.8792,2.8719,2.872,2.8757,2.875,2.8796,2.88,2.8799,2.8903,2.8921,2.898,2.8875,2.9166,2.9174,2.9182,2.9251,2.9266,2.928,0,0,0,0,0,2.8507,2.8606,2.859,2.8611,2.8712,2.8795,2.8808,2.8805,2.8762,2.8809,2.8826,2.8798,2.8963,2.8913,2.8933,2.8995,2.9163,2.9172,2.9181,2.9244,2.9263,2.9279,0,0,0,0,0,0,2.8571,2.8611,2.8595,2.871,2.8749,2.8786,2.8846,2.8826,2.8879,2.887,2.8864,2.8875,2.8975,2.8996,2.8939,2.9114,2.9056,2.907,2.9097,2.9115,2.913,2.9121,2.8881,0,0,0,0,0,2.8599,2.8664,2.8695,2.8793,2.8814,2.8827,2.8863,2.8857,2.8898,2.8914,2.8938,2.8978,2.9038,2.9079,2.9136,2.9254,2.9261,2.9307,2.9321,2.9333,2.9344,2.9404,2.9423,2.9216,2.9216,2.9216,0,0,2.8656,2.8686,2.8728,2.8807,2.8837,2.8902,2.8841,2.8914,2.8962,2.8925,2.9018,2.9037,2.9081,2.9188,2.9237,2.9208,2.9403,2.9345,2.9354,2.9359,2.9415,2.9435,2.9452,2.9222,2.9221,2.922,0,0,2.8793,2.8824,2.8907,2.8938,2.8984,2.8991,2.9011,2.9051,2.9062,2.9155,2.9127,2.9184,2.929,2.9321,2.9351,2.9497,2.9473,2.9517,2.9591,2.9649,2.9666,2.968,2.9728,2.9746,2.9528,2.9528,2.9528,0,2.8859,2.8957,2.8953,2.9027,2.9061,2.903,2.9113,2.9143,2.9206,2.9229,2.9197,2.9326,2.9354,2.9466,2.9501,2.9528,2.9548,2.951,2.9664,2.9678,2.9691,2.9737,2.9756,2.9533,2.9532,2.9532,2.9532,0,2.9033,2.9102,2.9163,2.9223,2.9264,2.9343,2.9349,2.9391,2.9381,2.9392,2.9485,2.9517,2.9579,2.9606,2.9598,2.9716,2.9696,2.9664,2.9605,2.9716,2.9759,2.9777,2.954,2.9538,2.9537,2.9536,0,0,2.9213,2.9267,2.929,2.9315,2.9362,2.9414,2.949,2.955,2.9585,2.9629,2.969,2.9779,2.9748,2.9782,2.9777,2.9829,2.9938,2.979,2.9791,2.9813,3.0065,3.0086,3.0107,2.9923,2.9926,2.9929,3.006,0,2.935,2.9482,2.9479,2.9602,2.9663,2.9634,2.9699,2.9734,2.9746,2.9798,2.9811,2.9872,2.983,2.9849,2.9899,2.9914,2.9988,2.9905,2.9977,2.998,2.9963,3.013,3.0154,3.0276,3.0078,3.008,3.0083,0,2.9528,2.9576,2.9704,2.9739,2.9764,2.9824,2.9876,2.9928,2.9966,2.997,3.0007,2.9993,3.0068,3.0009,3.011,3.0053,3.0083,3.0094,3.0099,3.0103,3.0036,3.0135,3.0316,3.0333,3.011,3.0108,3.0106,0,2.9641,2.9739,2.9826,2.9849,2.9893,2.9935,2.9955,2.999,3.0025,3.0071,3.0092,3.0147,3.0176,3.0218,3.0219,3.0176,3.032,3.0261,3.0323,3.0323,3.0353,3.035,3.0537,3.0378,3.0377,3.0377,3.0377,0,2.9793,2.9872,2.9877,2.9931,3.0017,3.0013,3.0098,3.0114,3.0145,3.02,3.0179,3.0231,3.023,3.0282,3.0284,3.0365,3.0379,3.0383,3.0382,3.0383,3.0382,3.04,3.039,3.0382,3.0381,3.038,3.0379,0,2.9933,2.9941,3.0034,3.0067,3.0077,3.0139,3.0167,3.0217,3.0226,3.0296,3.0312,3.0326,3.0386,3.0391,3.0462,3.0462,3.056,3.0551,3.0546,3.0544,3.0604,3.0596,3.0805,3.0831,3.0659,3.066,3.0662,0,3.0028,3.0087,3.0126,3.0161,3.0183,3.0241,3.0276,3.0273,3.031,3.0357,3.0401,3.0459,3.0505,3.0602,3.0618,3.0671,3.0661,3.0731,3.0669,3.0667,3.0658,3.0652,3.0657,3.0742,3.0744,3.0745,3.0747,0,3.0194,3.0194,3.0245,3.0297,3.0338,3.0379,3.0417,3.0447,3.0449,3.0491,3.0552,3.0588,3.0658,3.0715,3.0767,3.0786,3.0766,3.0766,3.0782,3.0783,3.0776,3.0776,3.0575,3.0761,3.0759,3.0758,3.0758,3.0757,3.0312,3.0361,3.0395,3.0452,3.048,3.0515,3.0563,3.0577,3.0628,3.0684,3.068,3.0747,3.0781,3.0847,3.0871,3.0922,3.0898,3.0923,3.0928,3.0934,3.0938,3.077,3.0932,3.0931,3.0931,3.093,3.093,0,3.0473,3.0493,3.0545,3.0598,3.0642,3.0619,3.0659,3.0697,3.0756,3.0789,3.0834,3.0903,3.0957,3.0977,3.1029,3.1066,3.1058,3.1079,3.1075,3.1079,3.0958,3.0937,3.1085,3.1085,3.1085,3.1085,3.1085,3.1085,3.0562,3.0643,3.0647,3.0741,3.0761,3.0825,3.0849,3.0881,3.0907,3.0984,3.1029,3.1041,3.1068,3.1122,3.117,3.1174,3.1193,3.1218,3.1218,3.1104,3.1088,3.1073,3.1053,3.1223,3.1223,3.1334,3.1335,3.1336]},{"header":{"parameterUnit":"m.s-1","parameterCategory":1,"la1":30.2991,"la2":30.254,"lo1":-89.0895,"lo2":-89.0444,"dy":0.0017,"dx":0.0017,"nx":28,"ny":28,"refTime":"2024-07-20T21:00:00:Z","depth":0,"parameterNumber":3,"parameterNumberName":"V-component_of_WINDS"},"data":[0,0,0,0,0,0,0,0,0,0,0,0,0,0,0,0,0,0,0,0,0,0,0,0,0,0,0,0,0,0,0,0,0,0,0,0,0,0,0,0,0,0,0,0,0,0,0,0,0,0,0,0,0,0,0,0,0,0,0.9344,0.9344,0,0.9332,0.9332,0.9332,0.9284,0.9283,0.9281,0.928,0.9269,0.927,0.9271,0,0,0,0,0,0,0,0,0,0,0,0,0,0.9325,0.9326,0.9344,0.9344,0.9344,0.9332,0.9332,0.9332,0.9284,0.9282,0.9281,0.928,0.9269,0.927,0.9271,0,0,0,0,0,0,0,0,0,0,0,0,0,0.9326,0.9326,0.9344,0.9319,0.9316,0.9332,0.9332,0.9332,0.9284,0.9282,0.9281,0.9279,0.9269,0.927,0.9271,0.9312,0,0,0.9274,0.9275,0,0,0,0,0,0,0,0,0.9326,0.9326,0.9323,0.932,0.9318,0.9308,0.9321,0.9325,0.9285,0.9296,0.928,0.9278,0.9284,0.9283,0.9285,0.9311,0.9311,0.9275,0.9275,0.9276,0.9276,0,0,0,0,0,0,0,0.9326,0.9327,0.934,0.9323,0.932,0.9307,0.9306,0.9322,0.93,0.9295,0.9292,0.9291,0.9282,0.9284,0.9284,0.9311,0.9275,0.9276,0.9276,0.9277,0.9367,0.9369,0,0,0,0,0,0,0.9329,0.9327,0.934,0.9339,0.9318,0.9309,0.9307,0.9313,0.9299,0.9296,0.9292,0.9289,0.9283,0.9283,0.9284,0.9329,0.9276,0.9277,0.9277,0.9365,0.9367,0.9369,0,0,0,0,0,0,0.9329,0.9331,0.9341,0.9332,0.9332,0.9311,0.9318,0.9313,0.9315,0.9297,0.9293,0.9298,0.9281,0.9282,0.9304,0.9328,0.9277,0.9278,0.9363,0.9366,0.9368,0.9421,0,0,0,0,0,0,0.9329,0.9331,0.9347,0.9333,0.9333,0.9362,0.9319,0.9314,0.9317,0.9312,0.9302,0.9298,0.928,0.9303,0.9306,0.9329,0.9279,0.9361,0.9364,0.9367,0.9417,0.9425,0.9432,0,0,0,0,0,0.9328,0.9363,0.9348,0.935,0.9352,0.9363,0.9363,0.9342,0.9319,0.9334,0.9322,0.9299,0.9325,0.9306,0.9308,0.9332,0.9359,0.9363,0.9367,0.9413,0.9423,0.9431,0,0,0,0,0,0,0.9381,0.9361,0.9344,0.9375,0.9371,0.9355,0.9374,0.9353,0.9356,0.9351,0.9324,0.9322,0.9348,0.9342,0.9321,0.9369,0.9338,0.9343,0.9372,0.9381,0.9389,0.939,0.928,0,0,0,0,0,0.9396,0.9407,0.9389,0.9418,0.9417,0.9396,0.94,0.9383,0.9378,0.9377,0.9366,0.9363,0.937,0.9375,0.9381,0.9415,0.9412,0.9433,0.944,0.9446,0.945,0.9466,0.9475,0.9382,0.9382,0.9382,0,0,0.9428,0.9418,0.9427,0.9428,0.9423,0.9435,0.9395,0.9409,0.9417,0.9379,0.9399,0.9391,0.9385,0.9413,0.9425,0.9409,0.9475,0.9451,0.9456,0.9457,0.9471,0.948,0.9488,0.9384,0.9384,0.9384,0,0,0.9492,0.9486,0.9508,0.9504,0.9496,0.9481,0.9487,0.9474,0.9466,0.9486,0.9457,0.9466,0.9479,0.9475,0.9475,0.9535,0.9513,0.9537,0.9576,0.9592,0.9599,0.9606,0.9626,0.9633,0.9542,0.9542,0.9542,0,0.9532,0.9548,0.9523,0.9538,0.9539,0.9503,0.9526,0.9523,0.9518,0.9519,0.9501,0.9515,0.9509,0.9535,0.9549,0.955,0.9555,0.9539,0.96,0.9606,0.9612,0.9631,0.9638,0.9545,0.9544,0.9544,0.9544,0,0.9598,0.9609,0.9628,0.9623,0.9626,0.9645,0.9622,0.9628,0.961,0.9597,0.9616,0.9607,0.9609,0.9614,0.9598,0.9637,0.9627,0.9605,0.9573,0.9624,0.9641,0.9648,0.9549,0.9548,0.9547,0.9546,0,0,0.9696,0.9675,0.9682,0.9678,0.9666,0.9675,0.9691,0.9692,0.9697,0.9695,0.9707,0.9718,0.9697,0.9697,0.9679,0.9693,0.9739,0.9669,0.9668,0.9681,0.978,0.9796,0.9805,0.9724,0.9725,0.9726,0.978,0,0.9756,0.9783,0.9759,0.9791,0.98,0.9765,0.9779,0.9773,0.9761,0.9767,0.9753,0.9761,0.9733,0.9732,0.9744,0.9731,0.9758,0.9726,0.9735,0.9735,0.9737,0.9814,0.9832,0.9884,0.9787,0.9788,0.9789,0,0.983,0.9829,0.9861,0.9844,0.9847,0.9861,0.9858,0.9865,0.9856,0.9846,0.9845,0.9823,0.9837,0.9805,0.9824,0.9803,0.9805,0.9798,0.98,0.98,0.9765,0.9816,0.99,0.9907,0.9799,0.9798,0.9798,0,0.9897,0.9904,0.9923,0.9921,0.9903,0.9913,0.9906,0.9895,0.9897,0.9895,0.9896,0.9896,0.9896,0.9897,0.9874,0.9854,0.9895,0.9862,0.9887,0.9888,0.9898,0.9898,0.9983,0.99,0.99,0.9899,0.9899,0,0.9966,0.9987,0.9953,0.9965,0.9986,0.9958,0.998,0.997,0.996,0.9969,0.9939,0.9948,0.9919,0.9924,0.9907,0.9924,0.9925,0.9917,0.9912,0.9919,0.992,0.992,0.9916,0.9901,0.9901,0.9901,0.99,0,1.0046,1.0024,1.0042,1.0022,1.0018,1.0034,1.0017,1.0027,1.0012,1.0023,1.0024,1.0001,1.0006,0.9983,0.9985,0.9973,0.9999,0.9988,1.0001,0.9998,1.0023,1.0021,1.0111,1.0121,1.0032,1.0033,1.0034,0,1.0091,1.0106,1.0087,1.009,1.0084,1.009,1.0091,1.0063,1.0065,1.0056,1.0066,1.0068,1.0068,1.0077,1.006,1.006,1.0049,1.0081,1.0049,1.0055,1.0048,1.0048,1.0048,1.0087,1.0089,1.0089,1.009,0,1.0174,1.0161,1.0163,1.0161,1.0162,1.016,1.0155,1.0159,1.0129,1.0133,1.0136,1.0136,1.0136,1.0138,1.0135,1.0127,1.0103,1.01,1.0106,1.0113,1.012,1.0116,1.0019,1.0098,1.0098,1.0097,1.0096,1.0096,1.0237,1.0247,1.0235,1.0238,1.0231,1.0226,1.0234,1.0219,1.0221,1.0219,1.0202,1.0209,1.0198,1.019,1.0184,1.0189,1.0174,1.0182,1.0184,1.0186,1.019,1.0119,1.0188,1.0188,1.0187,1.0187,1.0187,0,1.0317,1.0307,1.0309,1.0302,1.0304,1.0281,1.0273,1.0277,1.0282,1.0274,1.0274,1.0277,1.0278,1.0261,1.0259,1.0266,1.0255,1.0266,1.0266,1.0264,1.0204,1.0199,1.0275,1.0275,1.0275,1.0275,1.0275,1.0275,1.0359,1.0375,1.0361,1.0373,1.0362,1.0368,1.0365,1.0361,1.0354,1.0358,1.0359,1.0347,1.0334,1.0331,1.0331,1.0325,1.0326,1.0341,1.0332,1.0277,1.0268,1.026,1.0255,1.0341,1.0341,1.039,1.0391,1.0391]}]]